Probability
0 0 0 0 0 0 0 0 0 0 0 0 0 0 0 0 0 0 2 11 20 17 8 3 1 0 0 0 0 0 0 0 0 0 0 0 0 0 0 0 0 0 0 0 0 0 0 0 0
0 0 0 0 0 0 0 0 0 0 0 0 0 0 0 0 0 0 3 13 18 11 4 3 2 1 0 0 0 0 0 0 0 0 0 0 0 0 0 0 0 0 0 0 0 0 0 0 0
0 0 0 0 0 0 0 0 0 0 0 0 0 0 0 0 0 0 4 12 14 6 1 2 3 2 1 0 0 0 0 0 0 0 0 0 0 0 0 0 0 0 0 0 0 0 0 0 0
0 0 0 0 0 0 0 0 0 0 0 0 0 0 0 0 0 0 3 9 10 4 0 1 2 2 1 0 0 0 0 0 0 0 0 0 0 0 0 0 0 0 0 0 0 0 0 0 0
0 0 0 0 0 0 0 0 0 0 0 0 0 1 1 1 1 1 2 5 6 3 1 0 1 1 1 0 0 0 0 0 0 0 0 0 0 0 0 0 0 0 0 0 0 0 0 0 0
0 0 0 0 0 0 0 0 0 0 0 0 1 1 1 1 1 0 1 2 2 3 2 1 0 0 0 0 0 0 0 0 0 0 0 0 0 0 0 0 0 0 0 0 0 0 0 0 0
0 0 0 0 0 0 0 0 0 0 0 0 1 3 3 2 1 0 0 0 2 5 5 2 0 0 0 0 0 0 0 0 0 0 0 0 0 0 0 0 0 0 0 0 0 0 0 0 0
0 0 0 0 0 0 0 0 0 0 0 0 1 4 7 4 1 0 0 0 3 8 8 3 0 0 0 0 0 0 0 0 0 0 0 0 0 0 0 0 0 0 0 0 0 0 0 0 0
0 0 0 0 0 0 0 0 0 0 0 0 1 5 7 4 1 0 0 0 3 8 9 4 0 0 0 0 0 0 0 0 0 0 0 0 0 0 0 3 5 3 1 0 0 0 0 0 0
0 0 0 0 0 0 0 0 0 0 0 0 3 6 6 3 1 0 0 0 2 8 11 6 2 1 0 1 1 1 0 0 0 0 1 0 0 1 5 12 16 11 4 1 0 0 0 0 0
0 0 0 0 0 0 0 0 0 0 0 1 5 9 8 3 1 0 0 0 3 9 13 12 9 5 3 6 6 2 1 2 2 3 4 3 2 7 18 27 27 19 10 3 1 0 0 0 0
0 0 0 0 0 0 0 0 0 0 0 1 5 11 11 4 0 0 0 0 3 9 12 18 23 20 18 24 20 9 7 9 9 12 15 12 12 20 35 44 40 31 23 15 9 6 5 4 3
0 0 0 0 0 0 0 0 0 0 0 0 4 9 9 3 1 1 3 4 9 14 16 24 41 47 48 52 44 28 26 30 34 39 38 36 37 46 60 67 63 53 48 41 30 25 21 16 14
0 0 0 0 0 0 0 0 0 0 0 0 2 4 3 1 1 4 7 13 24 34 35 43 61 73 76 75 68 57 55 61 67 70 68 65 68 77 86 90 85 76 74 70 57 47 41 32 26
0 0 0 0 0 0 0 0 0 0 0 0 0 0 0 0 2 6 13 27 46 61 65 68 77 86 90 88 85 80 79 83 88 88 85 82 87 94 98 98 94 88 85 82 71 58 47 37 30
0 0 0 0 0 0 0 0 0 0 0 0 0 0 0 0 2 7 23 47 70 81 86 85 86 91 96 97 95 92 91 93 93 90 88 88 90 94 97 96 93 88 82 73 62 50 39 30 24
0 0 0 0 0 0 0 0 0 0 0 0 0 1 1 3 6 14 35 66 86 92 94 93 92 95 99 100 99 98 98 98 96 91 89 87 85 87 89 88 85 78 68 56 43 33 25 19 14
0 0 0 0 0 0 0 0 0 0 1 2 4 5 8 13 19 30 50 75 92 96 98 98 98 98 100 100 100 100 100 98 95 89 83 80 77 75 74 72 69 63 53 42 29 19 14 9 7
0 0 0 0 0 0 0 0 0 1 3 7 10 13 20 30 41 53 66 81 93 97 98 99 100 100 100 100 100 100 99 96 91 83 75 68 63 58 55 53 51 47 39 29 18 10 6 3 2
0 0 0 0 0 0 0 0 1 3 7 12 18 26 37 52 65 75 80 87 94 98 99 100 100 100 100 100 99 98 96 92 84 76 67 56 47 42 39 37 35 32 26 16 8 4 2 0 0
0 0 0 0 0 0 0 0 1 5 11 20 32 46 60 73 82 86 88 92 95 97 99 99 99 99 99 98 97 95 91 83 74 66 55 42 32 28 27 24 20 17 13 6 2 1 0 0 0
0 0 0 0 0 0 0 0 2 7 17 33 52 68 76 80 82 82 84 87 90 93 95 96 96 95 94 93 92 91 84 72 61 51 39 26 18 15 14 11 9 7 4 2 0 0 0 0 0
0 0 0 0 0 0 0 0 2 10 28 50 70 77 76 70 66 65 67 71 76 82 85 86 85 84 84 83 81 78 68 54 42 32 22 13 8 6 4 3 3 2 1 0 0 0 0 0 0
0 0 0 0 0 0 0 1 7 23 47 69 77 73 63 53 45 41 42 47 53 58 61 61 61 61 60 60 59 53 43 31 23 17 11 6 3 2 1 1 1 1 0 0 0 0 0 0 0
0 0 0 0 0 0 0 6 24 51 71 78 73 60 46 35 26 19 17 20 24 28 28 29 31 30 29 30 29 25 19 14 10 7 5 2 1 0 0 0 0 0 0 0 0 0 0 0 0
0 0 0 0 0 0 4 20 50 75 82 75 61 45 31 20 10 5 3 3 4 7 7 7 8 8 8 9 9 8 6 5 4 2 1 0 0 0 0 0 0 0 0 0 0 0 0 0 0
0 0 0 0 0 0 7 33 66 82 80 66 48 31 19 9 2 0 0 0 0 1 1 0 1 1 1 2 2 2 1 1 1 0 0 0 0 0 0 0 0 0 0 0 0 0 0 0 0
0 0 0 0 0 0 6 27 57 74 73 57 36 19 9 3 0 0 0 0 0 0 0 0 0 0 0 1 1 1 0 0 0 0 0 0 0 0 0 0 0 0 0 0 0 0 0 0 0
0 0 0 0 0 0 2 15 42 65 66 48 25 9 3 1 0 0 0 0 0 0 0 0 0 0 0 0 0 0 0 0 0 0 0 0 0 0 0 0 0 0 0 0 0 0 0 0 0
0 0 0 0 0 0 1 13 41 65 64 42 18 6 1 0 0 0 0 0 0 0 0 0 0 0 0 0 0 0 0 0 0 0 0 0 0 0 0 0 0 0 0 0 0 0 0 0 0
Wind_Speed
13 15 13 10 9 10 12 3 4 9 10 8 10 9 9 14 11 9 8 14 22 21 18 17 16 15 14 13 13 14 14 14 13 12 11 10 10 11 11 11 11 11 10 10 9 8 8 7 6
11 15 11 8 10 12 8 4 6 10 7 3 6 5 8 15 12 12 11 17 23 20 17 16 17 16 15 14 14 15 14 14 13 12 12 11 11 11 11 11 11 10 10 9 8 8 7 6 5
11 14 9 9 14 14 7 4 4 4 4 3 4 4 8 9 10 10 14 19 21 18 16 17 18 17 16 15 15 15 15 14 14 13 12 11 11 10 10 10 10 9 9 8 8 7 6 4 3
8 9 8 11 17 17 10 2 1 3 2 2 3 4 12 8 8 15 18 19 20 19 18 18 17 17 16 15 15 15 15 14 14 13 12 11 11 10 10 9 9 8 8 7 7 6 4 3 2
9 8 12 16 20 20 14 7 2 4 2 1 2 6 12 12 17 19 18 19 19 19 18 18 17 17 16 16 15 15 14 14 13 12 12 11 10 9 9 8 8 7 7 6 6 5 3 2 1
10 10 13 16 19 19 15 10 5 6 5 3 3 8 9 13 17 17 18 17 18 19 19 17 17 17 16 15 14 14 13 12 12 11 11 10 9 9 8 8 7 7 6 6 5 3 2 1 1
13 13 17 19 19 18 14 8 5 6 6 3 2 8 11 14 16 17 17 17 17 19 19 16 15 14 15 14 14 13 13 12 11 11 10 10 9 8 8 7 7 6 6 5 4 3 2 1 3
13 14 20 20 20 19 15 9 7 8 6 3 2 5 11 15 17 17 16 15 17 19 19 15 15 14 13 12 13 13 13 12 11 11 10 10 9 8 8 8 7 7 6 5 4 4 3 4 6
17 15 17 19 18 17 16 11 9 7 6 4 1 10 14 15 17 17 15 14 15 17 18 16 16 14 13 13 13 13 12 11 11 10 10 9 8 8 8 9 11 9 7 6 6 6 7 7 9
14 15 20 19 19 17 15 12 9 9 9 8 7 17 21 16 17 17 17 16 17 17 19 16 16 15 14 12 12 9 9 10 9 8 9 7 6 5 7 11 13 11 9 9 9 10 9 9 6
17 18 17 19 20 16 14 10 8 9 8 8 8 20 23 21 18 17 17 15 17 16 16 17 17 14 14 10 11 7 7 8 9 9 10 7 5 4 6 6 7 7 9 7 7 8 7 7 5
18 17 18 18 15 12 13 11 9 10 8 4 2 13 16 18 18 16 17 16 17 17 16 16 18 14 11 11 10 8 7 8 8 8 11 7 3 3 5 5 6 6 5 5 5 5 7 5 3
18 17 15 15 14 11 12 13 12 12 8 4 2 8 14 15 16 15 14 16 17 17 15 15 15 12 8 8 9 8 8 9 8 8 7 7 5 4 4 3 3 3 3 4 2 2 1 0 1
15 16 17 14 13 13 13 15 15 15 11 8 8 10 16 16 16 13 10 12 16 17 15 13 15 13 9 7 5 5 6 6 7 7 8 8 5 5 4 3 2 1 1 2 1 1 2 2 3
14 14 15 15 15 15 15 18 19 17 14 10 11 12 12 13 13 14 14 11 14 15 15 12 13 14 11 9 7 6 6 7 6 6 8 7 6 5 4 3 3 2 2 3 3 3 4 3 4
13 14 15 16 18 17 17 18 18 18 15 12 12 11 10 10 13 15 18 13 12 15 14 13 14 15 11 9 7 5 5 7 6 6 6 6 5 5 4 3 3 3 3 3 3 3 3 3 3
13 15 17 18 20 17 18 17 17 16 15 12 11 9 10 9 9 9 12 15 12 13 14 13 12 14 13 10 7 5 4 5 5 4 4 4 4 5 4 3 3 4 3 2 3 3 2 2 2
14 18 18 17 17 19 18 16 14 10 13 10 8 7 7 7 5 4 6 12 13 12 13 12 10 12 12 9 6 4 5 4 4 4 5 6 5 5 4 3 3 3 3 2 3 3 3 2 1
18 14 15 13 13 16 15 15 14 9 8 7 5 3 2 3 7 9 7 5 11 12 13 12 11 11 10 8 8 6 6 5 4 5 6 6 5 4 3 3 3 3 3 3 4 3 2 2 1
17 15 14 9 8 9 10 12 13 10 7 5 2 2 6 11 15 13 11 9 6 8 12 12 11 12 10 7 6 4 5 4 5 5 6 6 5 4 3 3 3 3 3 3 3 2 2 2 2
14 14 14 10 7 8 9 13 14 11 7 4 4 8 13 15 15 15 13 12 9 4 6 11 11 11 10 10 7 6 5 5 4 5 5 5 6 5 5 4 3 3 3 3 2 2 2 2 1
12 13 14 14 11 9 12 12 15 15 12 7 9 13 15 16 16 16 16 15 14 9 5 6 10 10 10 10 9 10 7 6 5 6 6 8 8 8 7 7 6 5 4 4 3 3 2 2 2
12 12 13 13 12 13 13 14 13 13 14 11 14 16 16 16 15 15 15 14 14 13 11 9 9 9 8 7 7 7 7 7 7 8 10 9 8 9 9 8 7 7 6 6 6 5 5 3 3
11 12 11 11 11 16 16 15 13 7 11 17 17 16 15 14 14 14 13 14 14 14 14 14 14 12 10 9 8 9 10 10 10 9 9 8 7 7 9 9 8 8 7 7 6 5 6 4 4
11 10 8 10 12 15 16 16 5 9 17 21 19 16 15 14 13 12 13 13 13 14 14 14 16 15 14 13 12 11 11 11 11 9 9 8 7 7 7 8 7 7 6 6 5 4 4 4 3
13 14 12 10 10 10 14 13 8 18 20 20 19 17 15 14 12 12 11 11 12 13 13 14 16 15 14 14 12 12 12 9 8 10 9 8 7 7 7 7 7 6 5 5 4 3 2 3 2
14 15 17 16 17 15 8 8 11 16 17 18 17 17 15 13 12 12 11 11 12 13 13 13 15 15 14 14 14 13 12 11 11 10 9 8 7 7 7 6 6 5 5 4 3 3 3 2 2
14 12 8 11 12 14 11 8 11 17 17 16 16 16 14 13 12 11 11 11 12 12 12 13 14 14 13 12 11 12 11 11 10 10 10 9 8 7 6 6 5 4 4 4 3 1 2 2 2
12 13 11 10 10 12 12 2 5 15 16 16 15 15 14 13 12 10 10 10 11 11 11 12 13 13 13 12 12 12 11 11 11 10 9 8 7 6 5 5 4 3 3 3 3 3 3 4 4
10 10 10 9 10 11 11 3 9 15 17 17 16 15 14 13 12 11 11 11 11 11 12 12 12 13 12 12 12 11 10 10 10 10 8 7 6 5 5 4 4 4 4 4 4 5 6 5 5
Wind_Direction
285 278 276 281 264 252 267 311 56 66 57 53 50 34 39 51 53 92 131 125 116 122 128 126 123 123 125 130 133 134 134 135 133 129 124 117 110 104 100 99 98 98 98 97 95 93 89 84 80
287 289 288 266 269 275 301 14 49 64 65 47 78 57 60 70 73 104 122 117 119 125 134 130 126 125 126 129 132 134 137 138 137 135 130 124 117 111 107 103 101 99 98 97 94 90 87 84 80
275 275 279 271 260 267 284 355 25 74 98 50 45 52 65 70 90 110 122 125 123 129 132 129 132 128 127 128 131 134 138 139 139 137 133 128 122 116 112 108 105 103 102 100 97 93 90 84 73
263 259 250 262 270 272 271 239 332 357 49 83 55 51 83 71 95 119 130 131 128 135 133 135 135 132 131 131 132 135 137 139 139 139 136 131 126 121 118 115 111 109 108 105 102 98 92 83 61
240 259 259 262 269 276 284 294 323 301 299 94 103 90 89 92 105 120 135 135 137 139 134 140 138 136 135 135 135 136 138 139 140 139 137 133 129 126 123 121 119 117 115 112 109 105 96 76 26
240 240 250 256 261 264 267 270 263 263 265 232 164 107 94 114 119 134 140 143 145 139 135 140 142 140 140 139 138 137 137 138 138 137 135 134 132 131 130 129 126 124 122 120 119 117 109 69 322
238 243 247 253 261 267 266 265 261 259 258 248 173 120 128 135 133 140 144 151 148 140 136 146 148 145 144 143 141 138 136 135 135 135 136 139 140 142 142 138 135 134 133 134 139 150 174 236 266
236 247 253 256 262 268 271 261 243 255 262 265 232 121 130 136 143 143 150 155 148 142 140 152 154 153 154 151 148 144 140 138 139 142 147 151 154 159 160 157 153 150 152 158 166 185 215 238 249
231 241 247 250 255 262 265 257 232 232 248 262 100 97 127 146 152 149 155 158 151 146 142 156 157 160 164 162 154 151 149 147 149 155 162 168 182 181 181 183 157 164 170 178 188 206 224 236 241
222 232 241 249 259 266 266 253 233 224 217 219 149 126 135 163 164 160 161 164 157 150 150 160 160 165 172 167 152 163 166 161 177 173 174 194 210 190 180 158 164 174 182 191 204 216 228 236 238
224 234 246 250 259 273 281 261 233 238 231 219 170 144 153 169 168 170 166 168 160 156 159 162 162 168 174 160 154 171 175 164 192 182 177 198 204 177 151 156 167 181 192 202 207 219 231 229 226
231 235 245 257 268 266 271 274 257 244 242 239 177 148 160 168 171 178 171 170 162 162 169 165 160 168 173 159 161 171 171 164 184 176 179 183 191 181 165 171 175 187 197 199 193 219 225 238 245
229 244 248 255 271 271 260 263 270 269 256 246 208 156 168 186 180 181 177 170 165 165 172 169 161 161 164 151 160 172 166 170 172 163 175 163 177 187 168 168 166 186 176 173 202 237 223 61 353
235 233 246 250 249 255 256 256 255 256 247 226 213 203 187 187 189 172 183 180 169 165 171 169 161 153 155 150 159 156 157 150 150 153 164 167 169 164 155 151 141 126 106 113 126 60 63 56 37
250 253 241 238 238 238 242 246 246 246 239 219 215 206 205 192 187 173 180 193 170 163 166 162 159 154 159 162 171 161 160 151 151 150 160 168 166 149 145 135 132 126 101 87 77 56 56 59 48
233 246 247 235 225 228 231 241 236 229 230 217 219 203 204 201 195 183 179 176 165 163 160 162 167 159 161 163 172 167 167 152 149 153 157 160 152 136 129 125 127 120 103 95 94 79 76 63 56
228 232 238 236 211 213 219 238 245 216 209 212 215 202 194 201 215 182 169 160 163 156 154 159 161 158 163 163 163 168 151 144 147 144 136 138 128 123 121 120 121 118 108 108 116 96 99 87 74
221 223 231 237 199 204 213 231 248 219 199 198 209 205 188 186 194 148 151 157 159 149 149 152 152 152 155 157 158 163 149 138 128 112 107 109 108 110 115 120 121 123 124 117 103 104 87 89 92
261 259 241 230 192 196 216 230 241 222 193 196 197 201 162 87 68 57 61 116 140 143 148 153 157 152 153 160 167 167 158 143 120 104 105 106 108 109 108 117 123 133 138 135 130 113 107 80 44
259 272 268 240 181 191 222 240 247 242 220 191 164 73 59 48 46 43 45 44 90 145 153 154 156 155 158 155 152 152 142 125 110 106 100 96 98 103 112 119 132 131 122 123 122 107 105 76 41
247 259 266 258 216 208 228 243 246 244 232 180 122 72 59 53 44 35 34 37 36 62 150 160 157 154 152 146 142 133 112 108 112 113 99 81 77 73 72 84 92 104 113 121 120 131 141 124 81
242 250 264 273 263 243 223 236 228 218 209 178 109 80 64 54 47 39 32 28 25 24 54 125 141 143 145 146 151 151 146 141 126 111 95 77 65 65 65 67 70 74 74 82 84 68 68 110 121
246 254 249 254 263 266 251 251 245 216 193 158 104 85 73 62 53 45 36 31 28 31 44 66 98 109 120 127 136 134 124 113 105 99 92 84 71 65 66 69 72 73 72 71 69 67 61 61 76
243 258 259 249 251 249 248 252 255 234 174 125 101 87 78 69 60 51 43 39 37 41 47 56 68 69 78 88 94 102 107 108 106 103 100 89 80 73 70 73 74 76 78 76 75 74 72 69 69
228 236 235 226 228 241 236 238 230 82 106 115 109 97 84 74 66 56 48 47 48 51 56 63 69 68 69 74 77 85 92 97 99 101 98 96 88 81 76 78 79 81 81 82 79 76 75 69 61
218 231 242 247 240 246 231 226 117 99 102 106 106 101 91 81 73 66 59 58 59 60 63 68 72 72 72 74 74 76 81 85 88 88 92 90 89 89 89 86 85 85 85 84 80 82 76 68 39
228 226 246 267 282 284 255 116 115 119 119 117 112 104 96 89 82 75 70 68 67 67 68 73 77 77 76 77 79 78 79 84 89 92 92 93 98 102 96 93 91 87 80 72 63 75 60 42 6
243 239 240 249 268 279 276 194 171 160 144 130 120 112 105 98 91 85 80 79 76 75 75 75 77 79 79 80 83 88 87 88 90 91 91 94 96 98 101 98 96 90 78 59 36 40 57 358 344
224 238 248 259 262 268 275 307 113 157 145 134 124 118 113 106 101 95 93 90 90 87 84 83 82 83 82 82 84 86 88 90 91 93 95 96 97 99 97 96 92 86 77 54 18 5 22 9 0
247 241 243 251 263 274 281 34 93 128 130 126 122 117 112 109 104 100 97 95 91 88 86 85 85 86 86 85 84 83 85 86 88 89 88 88 85 79 76 73 67 62 59 41 26 13 15 7 360